Find Starlink 30334

NORAD ID: 57719 Int'l Des: 2023-129 Owner: SPXS Country: US Constellation: starlink operational
LEOCIRCULAR

Aktuelle Ansicht

3D-Globus wird geladen...

Über Starlink 30334

Beschreibung wird geladen...

Nächste Überflüge

Passes for default location (London). Set your location on the main map for personalized predictions.

Höhenverlauf

Loading altitude history...

Zweizeiliger Elementsatz

1 57719U 23129X 26158.75127869 -.00000061 00000-0 73013-5 0 9990
2 57719 43.0034 329.5083 0001310 248.8682 111.2030 15.27574161154308
Epoch: 7. Juni 2026 • Age: 32 hours

Aktueller Status

Höhe 483.0 km
Geschwindigkeit 7.63 km/s
Subsatellitenpunkt 22.75°N, 172.81°W
Startdatum 27. Aug. 2023
Alter 2.7 years
Typ internet

Technische Details

Klassifizierung Payload
Masse 730.00 kg
Trockenmasse 700.00 kg
Gesamtmasse 730.00 kg
Länge 0.30 m
Durchmesser 4.10 m
Spannweite 29.00 m
Form Box + pan
Hersteller SPXS
Bus-Typ Starlink V2M
Phasenstatus In Orbit
Besitzer/Staat SPXS/US

Most Searched